Погода в Обидуше

Португалия     39°21′34″N   9°09′20″W
темп.,
°C
ветер,
м/с
пор.,
м/с
влажн.,
%
обл.,
%
осадки,
мм/ч
давл.,
гПа
погр.,
м
4 декабря, сб
сб400:00+12зсз128293 0.0 102732
03:00+12зсз379453 0.1 1027197
06:00+12з389634 0.3 1026221
09:00+14з398698 0.1 1027391
12:00+16зсз698197 0.1 1027765
15:00+14с588522 0.3 1027645
18:00+11с410840 0.3 1028541
21:00+12ссз510779 0.0 1029590
5 декабря, вс
вс500:00+12ссз6106394 0.0 10291139
03:00+12ссз6106295 0.0 10291246
06:00+12ссз6965100 0.1 10291242
09:00+13ссз596758 0.1 10301414
12:00+15ссз695929 0.1 10301385
15:00+14ссз610655 0.0 10281181
18:00+12ссз5117681 0.0 1029577
21:00+12ссз51078100 0.0 1030677
6 декабря, пн
пн600:00+12ссз498286 0.0 1030545
03:00+13ссз48668 0.0 10291067
06:00+10ссз22885 0.0 102941
09:00+13зсз268189 0.0 1029370
12:00+16зсз467248 0.0 1029618
15:00+16з457683 0.0 1027532
18:00+13з249757 0.0 102796
21:00+13зюз239893 0.0 102677
7 декабря, вт
вт700:00+14зюз2599100 0.1 1025202
03:00+14зюз379887 0.1 1024331
06:00+14юз489834 0.2 1022395
09:00+14юз4109594 0.0 1022667
12:00+16юз71180100 0.0 1021888
15:00+15зюз71392100 0.9 10181041
18:00+12с61187100 2.3 1019806
21:00+12ссз597366 0.1 1021645
8 декабря, ср
ср800:00+12зсз61072100 0.2 1021871
03:00+12сз7117897 0.5 1020955
06:00+12зсз71274100 0.6 1019967
09:00+12сз8137484 0.8 10201338
12:00+13сз8136716 1.0 10211522
15:00+14сз7126579 0.3 10201558
18:00+12сз712765 0.4 10211106
21:00+12сз612793 0.1 10221005